Location: Unspecified
(0.0000°N, 0.0000°E)
Time: 16:39:15
(UTC+00:00)

CUBEBUG 2 - Visible Passes

Search period start: 18 June 2019 00:00
Search period end: 28 June 2019 00:00
Orbit: 585 x 700 km, 97.6° (Epoch: 17 June)

Date Brightness Start Highest point End Pass type
(mag) Time Alt. Az. Time Alt. Az. Time Alt. Az.
19 Jun ? 04:33:27 10° ENE 04:36:30 18° ESE 04:39:36 10° SE visible
19 Jun ? 18:23:20 10° SW 18:25:19 13° WSW 18:27:16 10° WNW visible
20 Jun ? 04:56:28 10° NNE 05:00:34 39° ESE 05:04:50 10° S visible
21 Jun ? 05:20:16 10° NNE 05:24:42 88° ESE 05:29:18 10° S visible
23 Jun ? 04:33:29 10° ENE 04:36:41 19° ESE 04:39:56 10° SSE visible
23 Jun ? 18:23:46 10° SW 18:25:28 12° WSW 18:27:10 10° W visible
24 Jun ? 04:56:33 10° NNE 05:00:47 40° ESE 05:05:07 10° S visible
25 Jun ? 05:20:23 10° NNE 05:24:53 90° WNW 05:29:33 10° SSW visible
27 Jun ? 04:33:33 10° NE 04:36:52 20° ESE 04:40:16 10° SSE visible
27 Jun ? 18:24:13 10° WSW 18:25:38 11° WSW 18:27:01 10° W visible
